Regional Weather Roundup
Issued by NWS Goodland, KS

Home | Current Version | Previous Version | Text Only | Print | Product List | Glossary On
Versions: 1 2 3 4 5 6 7 8 9 10 11 12 13 14 15 16 17 18 19 20 21 22 23 24 25 26 27 28 29 30 31 32 33 34 35 36 37 38 39 40 41 42 43 44 45 46 47 48 49 50
000
ASUS43 KGLD 050559
RWRGLD

GOODLAND FORECAST AREA HOURLY WEATHER ROUNDUP
NATIONAL WEATHER SERVICE GOODLAND KS
1200 AM MDT TUE MAY 05 2015

...OFFICIAL OBSERVATIONS...

CITY           SKY/WX    TMP DP  RH WIND       PRES   REMARKS
GOODLAND KS    CLOUDY    49  47  93 NE9       30.06F
HILL CITY KS   CLOUDY    57  54  89 E8        30.07R FOG
IMPERIAL NEB   CLOUDY    49  47  93 CALM      30.10F FOG
MCCOOK NEB     CLOUDY    53  51  93 NE7       30.07F FOG
AKRON CO       FOG       45  45 100 E7        30.08F VSB 1/4
BURLINGTON CO  CLOUDY    49  46  90 NE13      30.06F
LIMON CO       CLOUDY    48  47  96 SE6       30.08F
$$

...UNOFFICIAL OBSERVATIONS...

CITY           SKY/WX    TMP DP  RH WIND       PRES   REMARKS
COLBY KS       CLOUDY    54  54 100 N7        30.08R
GOVE KS          N/A     57  32  39 MISG        N/A
LENORA KS        N/A     54  32  43 MISG        N/A
NORTON KS      CLOUDY    54  48  82 N8        30.05S HAZE
SHARON SPRINGS   N/A     51  49  93 MISG        N/A
KIT CARSON CO    N/A     51  48  90 MISG        N/A
YUMA CO          N/A     48  46  92 E6          N/A
$$


USA.gov is the U.S. government's official web portal to all federal, state and local government web resources and services.